| time (UTC) | temp F | wind direction | speed MPH | gust MPH | rain 1hr in | rain 24hr in | rain mn in | humidity % | barometer mb |
| 20260504191747 | 67 | 286 | 2.0 | 2.0 | 0.00 | 0.00 | 0.00 | 44 | 1009.0 |
| 20260504191243 | 67 | 274 | 2.0 | 8.0 | 0.00 | 0.00 | 0.00 | 43 | 1009.0 |
| 20260504190739 | 67 | 281 | 4.0 | 4.0 | 0.00 | 0.00 | 0.00 | 44 | 1009.2 |
| 20260504190236 | 66 | 21 | 1.0 | 2.0 | 0.00 | 0.00 | 0.00 | 45 | 1009.2 |
| 20260504185732 | 66 | 295 | 2.0 | 3.0 | 0.00 | 0.00 | 0.00 | 45 | 1009.1 |
| 20260504185229 | 68 | 343 | 4.0 | 8.0 | 0.00 | 0.00 | 0.00 | 44 | 1009.0 |
| 20260504184725 | 68 | 308 | 2.0 | 2.0 | 0.00 | 0.00 | 0.00 | 44 | 1009.3 |
| 20260504184221 | 66 | 88 | 4.0 | 6.0 | 0.00 | 0.00 | 0.00 | 46 | 1009.4 |
| 20260504183717 | 66 | 338 | 3.0 | 4.0 | 0.00 | 0.00 | 0.00 | 46 | 1009.6 |
| 20260504183215 | 67 | 271 | 5.0 | 6.0 | 0.00 | 0.00 | 0.00 | 45 | 1009.4 |
| 20260504182713 | 66 | 268 | 4.0 | 6.0 | 0.00 | 0.00 | 0.00 | 45 | 1009.4 |
| 20260504182210 | 66 | 325 | 5.0 | 7.0 | 0.00 | 0.00 | 0.00 | 48 | 1009.6 |
| 20260504181707 | 66 | 294 | 5.0 | 7.0 | 0.00 | 0.00 | 0.00 | 46 | 1009.6 |
| 20260504181204 | 64 | 345 | 4.0 | 6.0 | 0.00 | 0.00 | 0.00 | 45 | 1009.6 |
| 20260504180703 | 65 | 23 | 2.0 | 2.0 | 0.00 | 0.00 | 0.00 | 44 | 1009.7 |
| 20260504180202 | 64 | 280 | 1.0 | 2.0 | 0.00 | 0.00 | 0.00 | 46 | 1009.7 |
| 20260504175658 | 63 | 356 | 4.0 | 4.0 | 0.00 | 0.00 | 0.00 | 46 | 1009.7 |
| 20260504175155 | 64 | 238 | 8.0 | 11.0 | 0.00 | 0.00 | 0.00 | 44 | 1009.9 |
| 20260504174653 | 65 | 286 | 6.0 | 8.0 | 0.00 | 0.00 | 0.00 | 45 | 1009.8 |
| 20260504174150 | 65 | 24 | 4.0 | 6.0 | 0.00 | 0.00 | 0.00 | 43 | 1009.8 |
| 20260504173647 | 64 | 359 | 2.0 | 3.0 | 0.00 | 0.00 | 0.00 | 47 | 1009.8 |
| 20260504173144 | 63 | 326 | 4.0 | 6.0 | 0.00 | 0.00 | 0.00 | 47 | 1009.8 |
| 20260504172640 | 65 | 250 | 8.0 | 10.0 | 0.00 | 0.00 | 0.00 | 45 | 1009.8 |
| 20260504172137 | 63 | 330 | 5.0 | 6.0 | 0.00 | 0.00 | 0.00 | 45 | 1009.8 |
| 20260504171633 | 64 | 327 | 2.0 | 3.0 | 0.00 | 0.00 | 0.00 | 45 | 1009.9 |
| 20260504171131 | 65 | 6 | 1.0 | 1.0 | 0.00 | 0.00 | 0.00 | 45 | 1010.0 |
| 20260504170627 | 64 | 319 | 1.0 | 1.0 | 0.00 | 0.00 | 0.00 | 48 | 1009.8 |
| 20260504170125 | 64 | 189 | 4.0 | 4.0 | 0.00 | 0.00 | 0.00 | 48 | 1010.0 |
| 20260504151009 | 59 | 280 | 6.0 | 9.0 | 0.00 | 0.00 | 0.00 | 48 | 1011.2 |
| 20260504150507 | 59 | 305 | 6.0 | 8.0 | 0.00 | 0.00 | 0.00 | 49 | 1011.5 |
| 20260504140927 | 55 | 10 | 3.0 | 4.0 | 0.00 | 0.00 | 0.00 | 47 | 1011.7 |
| 20260504140424 | 56 | 287 | 3.0 | 4.0 | 0.00 | 0.00 | 0.00 | 48 | 1011.7 |
| 20260504130349 | 54 | 80 | 3.0 | 4.0 | 0.00 | 0.00 | 0.00 | 47 | 1012.1 |
| 20260504120311 | 49 | 333 | 2.0 | 3.0 | 0.00 | 0.00 | 0.00 | 53 | 1012.1 |
| 20260504110235 | 41 | 349 | 0.0 | 0.0 | 0.00 | 0.00 | 0.00 | 68 | 1012.0 |
| 20260504100159 | 36 | 8 | 0.0 | 0.0 | 0.00 | 0.00 | 0.00 | 82 | 1011.8 |
| 20260504090122 | 31 | 351 | 0.0 | 0.0 | 0.00 | 0.00 | 0.00 | 93 | 1012.0 |
| 20260504081552 | 31 | 351 | 0.0 | 0.0 | 0.00 | 0.00 | 0.00 | 94 | 1012.3 |
| 20260504081048 | 31 | 351 | 0.0 | 0.0 | 0.00 | 0.00 | 0.00 | 95 | 1012.1 |
| 20260504080545 | 30 | 351 | 0.0 | 0.0 | 0.00 | 0.00 | 0.00 | 94 | 1012.6 |
| 20260504050352 | 31 | 351 | 0.0 | 0.0 | 0.00 | 0.00 | 0.00 | 90 | 1012.3 |
| 20260504045849 | 31 | 351 | 0.0 | 0.0 | 0.00 | 0.00 | 0.00 | 90 | 1012.5 |
| 20260504045343 | 31 | 351 | 0.0 | 0.0 | 0.00 | 0.00 | 0.00 | 89 | 1012.5 |
| 20260504044841 | 32 | 351 | 0.0 | 0.0 | 0.00 | 0.00 | 0.00 | 89 | 1012.5 |
| 20260504044339 | 32 | 351 | 0.0 | 0.0 | 0.00 | 0.00 | 0.00 | 89 | 1012.5 |
| 20260504043836 | 32 | 351 | 0.0 | 0.0 | 0.00 | 0.00 | 0.00 | 89 | 1012.7 |
| 20260504043332 | 32 | 351 | 0.0 | 0.0 | 0.00 | 0.00 | 0.00 | 89 | 1012.6 |
| 20260504042830 | 32 | 351 | 0.0 | 0.0 | 0.00 | 0.00 | 0.00 | 89 | 1012.6 |
| 20260504042326 | 32 | 351 | 0.0 | 0.0 | 0.00 | 0.00 | 0.00 | 89 | 1012.5 |
| 20260504041822 | 32 | 351 | 0.0 | 0.0 | 0.00 | 0.00 | 0.00 | 89 | 1012.5 |
| 20260504041318 | 32 | 351 | 0.0 | 0.0 | 0.00 | 0.00 | 0.00 | 89 | 1012.5 |
| 20260504040814 | 32 | 351 | 0.0 | 0.0 | 0.00 | 0.00 | 0.00 | 89 | 1012.3 |
| 20260504040312 | 32 | 351 | 0.0 | 0.0 | 0.00 | 0.00 | 0.00 | 89 | 1012.5 |
| 20260504035808 | 32 | 351 | 0.0 | 0.0 | 0.00 | 0.00 | 0.00 | 88 | 1012.6 |
| 20260504035305 | 32 | 351 | 0.0 | 0.0 | 0.00 | 0.00 | 0.00 | 88 | 1012.8 |
| 20260504034802 | 33 | 351 | 0.0 | 0.0 | 0.00 | 0.00 | 0.00 | 87 | 1012.5 |
| 20260504034300 | 33 | 351 | 0.0 | 0.0 | 0.00 | 0.00 | 0.00 | 86 | 1012.6 |
| 20260504033757 | 33 | 351 | 0.0 | 0.0 | 0.00 | 0.00 | 0.00 | 86 | 1012.5 |
| 20260504033255 | 33 | 351 | 0.0 | 0.0 | 0.00 | 0.00 | 0.00 | 86 | 1012.7 |
| 20260504032752 | 33 | 351 | 0.0 | 0.0 | 0.00 | 0.00 | 0.00 | 86 | 1012.7 |
| 20260504032249 | 33 | 351 | 0.0 | 0.0 | 0.00 | 0.00 | 0.00 | 86 | 1012.6 |
| 20260504031745 | 33 | 351 | 0.0 | 0.0 | 0.00 | 0.00 | 0.00 | 86 | 1012.7 |
| 20260504031243 | 34 | 351 | 0.0 | 0.0 | 0.00 | 0.00 | 0.00 | 85 | 1012.7 |
| 20260504030738 | 34 | 351 | 0.0 | 0.0 | 0.00 | 0.00 | 0.00 | 84 | 1012.6 |
| 20260504030236 | 34 | 351 | 0.0 | 0.0 | 0.00 | 0.00 | 0.00 | 84 | 1012.6 |
| 20260504025732 | 34 | 351 | 0.0 | 0.0 | 0.00 | 0.00 | 0.00 | 83 | 1012.7 |
| 20260504025229 | 34 | 351 | 0.0 | 0.0 | 0.00 | 0.00 | 0.00 | 83 | 1012.7 |
| 20260504024726 | 35 | 351 | 0.0 | 0.0 | 0.00 | 0.00 | 0.00 | 83 | 1012.7 |
| 20260504024222 | 35 | 351 | 0.0 | 0.0 | 0.00 | 0.00 | 0.00 | 81 | 1012.6 |
| 20260504023720 | 36 | 351 | 0.0 | 0.0 | 0.00 | 0.00 | 0.00 | 79 | 1012.7 |
| 20260504023215 | 36 | 351 | 0.0 | 0.0 | 0.00 | 0.00 | 0.00 | 79 | 1012.8 |
| 20260504022712 | 36 | 351 | 0.0 | 0.0 | 0.00 | 0.00 | 0.00 | 79 | 1012.6 |
| 20260504022208 | 36 | 351 | 0.0 | 0.0 | 0.00 | 0.00 | 0.00 | 78 | 1012.6 |
| 20260504021706 | 37 | 351 | 0.0 | 0.0 | 0.00 | 0.00 | 0.00 | 77 | 1012.6 |
| 20260504021202 | 37 | 351 | 0.0 | 0.0 | 0.00 | 0.00 | 0.00 | 76 | 1012.6 |
| 20260504020659 | 37 | 351 | 0.0 | 0.0 | 0.00 | 0.00 | 0.00 | 76 | 1012.7 |
| 20260504020155 | 37 | 351 | 0.0 | 0.0 | 0.00 | 0.00 | 0.00 | 75 | 1012.6 |
| 20260504015652 | 38 | 351 | 0.0 | 0.0 | 0.00 | 0.00 | 0.00 | 75 | 1012.7 |
| 20260504015148 | 38 | 351 | 0.0 | 0.0 | 0.00 | 0.00 | 0.00 | 75 | 1012.6 |
| 20260504014644 | 38 | 351 | 0.0 | 0.0 | 0.00 | 0.00 | 0.00 | 75 | 1012.5 |
| 20260504014141 | 38 | 350 | 0.0 | 0.0 | 0.00 | 0.00 | 0.00 | 75 | 1012.6 |
| 20260504013639 | 39 | 350 | 0.0 | 0.0 | 0.00 | 0.00 | 0.00 | 75 | 1012.3 |
| 20260504013136 | 39 | 351 | 0.0 | 0.0 | 0.00 | 0.00 | 0.00 | 75 | 1012.3 |
| 20260504012633 | 39 | 351 | 0.0 | 0.0 | 0.00 | 0.00 | 0.00 | 75 | 1012.5 |
| 20260504012131 | 40 | 351 | 0.0 | 0.0 | 0.00 | 0.00 | 0.00 | 72 | 1012.3 |
| 20260504011627 | 41 | 351 | 0.0 | 0.0 | 0.00 | 0.00 | 0.00 | 70 | 1012.3 |
| 20260504011124 | 41 | 351 | 0.0 | 0.0 | 0.00 | 0.00 | 0.00 | 70 | 1012.3 |
| 20260504010620 | 41 | 351 | 0.0 | 0.0 | 0.00 | 0.00 | 0.00 | 67 | 1012.1 |
| 20260504010116 | 42 | 351 | 0.0 | 0.0 | 0.00 | 0.00 | 0.00 | 66 | 1012.0 |
| 20260504005613 | 42 | 350 | 0.0 | 0.0 | 0.00 | 0.00 | 0.00 | 67 | 1012.0 |
| 20260504005110 | 43 | 350 | 0.0 | 0.0 | 0.00 | 0.00 | 0.00 | 64 | 1012.0 |
| 20260504004608 | 43 | 350 | 0.0 | 0.0 | 0.00 | 0.00 | 0.00 | 64 | 1012.0 |
| 20260504004105 | 44 | 349 | 0.0 | 0.0 | 0.00 | 0.00 | 0.00 | 62 | 1011.9 |
| 20260504003600 | 44 | 353 | 0.0 | 0.0 | 0.00 | 0.00 | 0.00 | 64 | 1011.8 |
| 20260504003057 | 44 | 353 | 0.0 | 0.0 | 0.00 | 0.00 | 0.00 | 63 | 1011.8 |
| 20260504002554 | 44 | 354 | 0.0 | 0.0 | 0.00 | 0.00 | 0.00 | 62 | 1011.6 |
| 20260504002052 | 45 | 355 | 0.0 | 0.0 | 0.00 | 0.00 | 0.00 | 60 | 1011.7 |
| 20260504001550 | 46 | 357 | 0.0 | 0.0 | 0.00 | 0.00 | 0.00 | 58 | 1011.6 |
| 20260504001045 | 46 | 358 | 0.0 | 0.0 | 0.00 | 0.00 | 0.00 | 57 | 1011.6 |
| 20260504000543 | 47 | 355 | 0.0 | 0.0 | 0.00 | 0.00 | 0.00 | 57 | 1011.6 |
| 20260504000040 | 49 | 329 | 0.0 | 0.0 | 0.00 | 0.00 | 0.00 | 55 | 1011.6 |
| 20260503235538 | 50 | 354 | 0.0 | 0.0 | 0.00 | 0.00 | 0.00 | 53 | 1011.3 |
| 20260503235035 | 51 | 321 | 1.0 | 2.0 | 0.00 | 0.00 | 0.00 | 49 | 1011.5 |
| 20260503234532 | 51 | 301 | 1.0 | 2.0 | 0.00 | 0.00 | 0.00 | 47 | 1011.4 |
| 20260503234031 | 51 | 239 | 4.0 | 4.0 | 0.00 | 0.00 | 0.00 | 44 | 1011.4 |
| 20260503233527 | 51 | 297 | 2.0 | 2.0 | 0.00 | 0.00 | 0.00 | 45 | 1011.5 |
| 20260503233023 | 52 | 325 | 2.0 | 2.0 | 0.00 | 0.00 | 0.00 | 45 | 1011.3 |
| 20260503232520 | 52 | 282 | 2.0 | 2.0 | 0.00 | 0.00 | 0.00 | 44 | 1011.4 |
| 20260503232017 | 52 | 310 | 2.0 | 2.0 | 0.00 | 0.00 | 0.00 | 44 | 1011.3 |
| 20260503231515 | 52 | 337 | 0.0 | 1.0 | 0.00 | 0.00 | 0.00 | 46 | 1011.3 |
| 20260503231012 | 52 | 336 | 3.0 | 3.0 | 0.00 | 0.00 | 0.00 | 43 | 1011.4 |
| 20260503230508 | 52 | 311 | 1.0 | 2.0 | 0.00 | 0.00 | 0.00 | 44 | 1011.3 |
| 20260503230006 | 52 | 281 | 4.0 | 4.0 | 0.00 | 0.00 | 0.00 | 43 | 1011.1 |
| 20260503225503 | 52 | 301 | 2.0 | 2.0 | 0.00 | 0.00 | 0.00 | 43 | 1011.3 |
| 20260503224958 | 53 | 325 | 5.0 | 8.0 | 0.00 | 0.00 | 0.00 | 43 | 1011.2 |
| 20260503224455 | 53 | 284 | 3.0 | 4.0 | 0.00 | 0.00 | 0.00 | 42 | 1011.2 |
| 20260503223953 | 53 | 307 | 2.0 | 2.0 | 0.00 | 0.00 | 0.00 | 43 | 1011.0 |
| 20260503223451 | 53 | 250 | 3.0 | 3.0 | 0.00 | 0.00 | 0.00 | 43 | 1011.3 |
| 20260503222946 | 53 | 325 | 0.0 | 1.0 | 0.00 | 0.00 | 0.00 | 46 | 1011.2 |
| 20260503222445 | 53 | 353 | 3.0 | 3.0 | 0.00 | 0.00 | 0.00 | 44 | 1011.2 |
| 20260503221942 | 53 | 344 | 4.0 | 6.0 | 0.00 | 0.00 | 0.00 | 44 | 1011.3 |
| 20260503221440 | 53 | 331 | 4.0 | 6.0 | 0.00 | 0.00 | 0.00 | 44 | 1011.2 |
| 20260503220937 | 53 | 296 | 2.0 | 3.0 | 0.00 | 0.00 | 0.00 | 42 | 1011.3 |
| 20260503220433 | 53 | 312 | 2.0 | 2.0 | 0.00 | 0.00 | 0.00 | 43 | 1011.4 |
| 20260503215931 | 52 | 265 | 4.0 | 4.0 | 0.00 | 0.00 | 0.00 | 44 | 1011.4 |
| 20260503215427 | 52 | 240 | 2.0 | 3.0 | 0.00 | 0.00 | 0.00 | 44 | 1011.4 |
| 20260503214925 | 52 | 331 | 3.0 | 6.0 | 0.00 | 0.00 | 0.00 | 46 | 1011.4 |
| 20260503214423 | 52 | 335 | 3.0 | 4.0 | 0.00 | 0.00 | 0.00 | 45 | 1011.4 |
| 20260503213920 | 53 | 323 | 3.0 | 4.0 | 0.00 | 0.00 | 0.00 | 43 | 1011.3 |
| 20260503213418 | 53 | 352 | 4.0 | 6.0 | 0.00 | 0.00 | 0.00 | 44 | 1011.2 |
| 20260503212914 | 53 | 295 | 3.0 | 4.0 | 0.00 | 0.00 | 0.00 | 43 | 1011.1 |
| 20260503212412 | 53 | 341 | 5.0 | 7.0 | 0.00 | 0.00 | 0.00 | 42 | 1011.2 |
| 20260503211909 | 53 | 328 | 11.0 | 14.0 | 0.00 | 0.00 | 0.00 | 43 | 1011.1 |
| 20260503211405 | 52 | 310 | 8.0 | 13.0 | 0.00 | 0.00 | 0.00 | 43 | 1011.2 |
| 20260503210901 | 53 | 342 | 6.0 | 7.0 | 0.00 | 0.00 | 0.00 | 43 | 1010.8 |
| 20260503210358 | 53 | 337 | 5.0 | 6.0 | 0.00 | 0.00 | 0.00 | 43 | 1011.2 |
| 20260503205853 | 53 | 296 | 2.0 | 3.0 | 0.00 | 0.00 | 0.00 | 44 | 1011.2 |
| 20260503205350 | 53 | 313 | 7.0 | 9.0 | 0.00 | 0.00 | 0.00 | 43 | 1011.1 |
| 20260503204846 | 53 | 346 | 6.0 | 9.0 | 0.00 | 0.00 | 0.00 | 44 | 1011.3 |
| 20260503204343 | 52 | 337 | 4.0 | 6.0 | 0.00 | 0.00 | 0.00 | 43 | 1011.2 |
| 20260503203841 | 52 | 316 | 8.0 | 9.0 | 0.00 | 0.00 | 0.00 | 42 | 1011.1 |
| 20260503203338 | 52 | 267 | 4.0 | 4.0 | 0.00 | 0.00 | 0.00 | 42 | 1011.2 |
| 20260503202835 | 52 | 339 | 3.0 | 4.0 | 0.00 | 0.00 | 0.00 | 42 | 1011.2 |
| 20260503202333 | 52 | 330 | 7.0 | 9.0 | 0.00 | 0.00 | 0.00 | 42 | 1011.3 |
| 20260503201831 | 53 | 348 | 8.0 | 10.0 | 0.00 | 0.00 | 0.00 | 41 | 1011.3 |
| 20260503201328 | 53 | 267 | 7.0 | 8.0 | 0.00 | 0.00 | 0.00 | 41 | 1011.3 |
| 20260503200825 | 52 | 263 | 6.0 | 7.0 | 0.00 | 0.00 | 0.00 | 42 | 1011.3 |
| 20260503200321 | 53 | 346 | 9.0 | 10.0 | 0.00 | 0.00 | 0.00 | 40 | 1011.3 |
| 20260503195819 | 53 | 275 | 7.0 | 9.0 | 0.00 | 0.00 | 0.00 | 40 | 1011.5 |
| 20260503195315 | 54 | 306 | 5.0 | 7.0 | 0.00 | 0.00 | 0.00 | 40 | 1011.0 |
| 20260503194813 | 53 | 268 | 7.0 | 9.0 | 0.00 | 0.00 | 0.00 | 40 | 1011.3 |
| 20260503194308 | 52 | 348 | 7.0 | 8.0 | 0.00 | 0.00 | 0.00 | 41 | 1011.3 |
| 20260503193804 | 53 | 348 | 8.0 | 11.0 | 0.00 | 0.00 | 0.00 | 41 | 1011.5 |
| 20260503193300 | 52 | 269 | 4.0 | 4.0 | 0.00 | 0.00 | 0.00 | 39 | 1011.4 |
| 20260503192756 | 52 | 255 | 4.0 | 6.0 | 0.00 | 0.00 | 0.00 | 42 | 1011.5 |
| 20260503192252 | 53 | 261 | 6.0 | 10.0 | 0.00 | 0.00 | 0.00 | 43 | 1011.5 |